�������l�o���
Date,Time,MP-1(��Sv/h),MP-2(��Sv/h),MP-3(��Sv/h),MP-4(��Sv/h),MP-5(��Sv/h),MP-6(��Sv/h),MP-7(��Sv/h),MP-8(��Sv/h),����,����(m/s),���J
2018/06/18,00:00,0.855,1.212,0.838,1.524,1.057,0.473,0.819,0.782,��,7.7,��
2018/06/18,00:10,0.855,1.212,0.838,1.523,1.058,0.471,0.820,0.783,��,7.9,��
2018/06/18,00:20,0.854,1.212,0.838,1.525,1.058,0.471,0.819,0.781,��,7.8,��
2018/06/18,00:30,0.854,1.213,0.837,1.524,1.058,0.472,0.818,0.783,��,7.2,��
2018/06/18,00:40,0.853,1.215,0.836,1.524,1.058,0.472,0.819,0.783,��,7.1,��
2018/06/18,00:50,0.856,1.214,0.837,1.525,1.058,0.471,0.818,0.782,��,7.1,��
2018/06/18,01:00,0.854,1.215,0.839,1.525,1.058,0.470,0.818,0.785,��,7.3,��
2018/06/18,01:10,0.854,1.212,0.836,1.525,1.056,0.471,0.817,0.784,��,6.7,��
2018/06/18,01:20,0.854,1.214,0.838,1.525,1.059,0.470,0.819,0.785,��,6.0,��
2018/06/18,01:30,0.854,1.214,0.837,1.523,1.057,0.471,0.819,0.783,��,6.1,��
2018/06/18,01:40,0.856,1.211,0.838,1.522,1.058,0.471,0.818,0.784,��,6.9,��
2018/06/18,01:50,0.853,1.213,0.837,1.523,1.059,0.473,0.818,0.782,��,7.0,��
2018/06/18,02:00,0.852,1.211,0.839,1.522,1.057,0.472,0.818,0.784,��,6.2,��
2018/06/18,02:10,0.853,1.213,0.837,1.524,1.059,0.472,0.821,0.782,��,7.2,��
2018/06/18,02:20,0.853,1.211,0.836,1.524,1.062,0.471,0.818,0.782,��,7.4,��
2018/06/18,02:30,0.855,1.211,0.839,1.522,1.059,0.471,0.820,0.783,��,7.6,��
2018/06/18,02:40,0.852,1.211,0.839,1.526,1.059,0.471,0.819,0.783,��,7.8,��
2018/06/18,02:50,0.854,1.211,0.836,1.525,1.060,0.470,0.819,0.783,��,7.9,��
2018/06/18,03:00,0.854,1.211,0.839,1.528,1.060,0.471,0.820,0.783,��,7.6,��
2018/06/18,03:10,0.851,1.212,0.838,1.525,1.058,0.471,0.820,0.783,��,7.6,��
2018/06/18,03:20,0.852,1.212,0.835,1.525,1.057,0.472,0.819,0.782,��,6.4,��
2018/06/18,03:30,0.854,1.210,0.839,1.524,1.059,0.471,0.819,0.783,��,5.6,��
2018/06/18,03:40,0.855,1.212,0.839,1.523,1.062,0.472,0.818,0.783,��,5.2,��
2018/06/18,03:50,0.853,1.210,0.838,1.524,1.059,0.470,0.819,0.783,��쓌,5.0,��
2018/06/18,04:00,0.855,1.210,0.838,1.525,1.061,0.472,0.818,0.782,��,4.9,��
2018/06/18,04:10,0.853,1.209,0.838,1.525,1.061,0.471,0.817,0.784,��,5.3,��
2018/06/18,04:20,0.855,1.212,0.838,1.527,1.058,0.470,0.819,0.784,��,6.2,��
2018/06/18,04:30,0.853,1.211,0.839,1.523,1.062,0.471,0.819,0.785,��,5.1,��
2018/06/18,04:40,0.854,1.211,0.840,1.526,1.059,0.470,0.818,0.783,��쓌,5.9,��
2018/06/18,04:50,0.853,1.212,0.839,1.525,1.062,0.470,0.819,0.783,��,5.3,��
2018/06/18,05:00,0.854,1.212,0.837,1.525,1.059,0.469,0.818,0.783,��,5.1,��
2018/06/18,05:10,0.854,1.212,0.838,1.525,1.058,0.469,0.819,0.784,��,5.3,��
2018/06/18,05:20,0.853,1.211,0.837,1.525,1.058,0.470,0.818,0.783,��쓌,5.7,��
2018/06/18,05:30,0.850,1.214,0.839,1.526,1.061,0.471,0.819,0.784,��쓌,4.7,��
2018/06/18,05:40,0.852,1.211,0.837,1.525,1.059,0.470,0.820,0.785,��,3.9,��
2018/06/18,05:50,0.852,1.213,0.839,1.527,1.058,0.469,0.820,0.783,��,3.5,��
2018/06/18,06:00,0.853,1.210,0.839,1.528,1.061,0.469,0.819,0.784,��,3.3,��
2018/06/18,06:10,0.853,1.215,0.839,1.525,1.061,0.470,0.819,0.783,��,2.2,��
2018/06/18,06:20,0.855,1.214,0.839,1.526,1.061,0.470,0.819,0.783,��쐼,1.4,��
2018/06/18,06:30,0.854,1.211,0.840,1.525,1.061,0.469,0.819,0.784,��쐼,0.8,��
2018/06/18,06:40,0.854,1.214,0.841,1.527,1.060,0.470,0.819,0.786,-,CALM,��
2018/06/18,06:50,0.855,1.215,0.840,1.529,1.061,0.469,0.822,0.784,-,CALM,��
2018/06/18,07:00,0.856,1.213,0.840,1.529,1.062,0.470,0.818,0.784,-,CALM,��
2018/06/18,07:10,0.856,1.214,0.841,1.529,1.062,0.469,0.819,0.784,-,CALM,��
2018/06/18,07:20,0.857,1.213,0.842,1.526,1.061,0.468,0.819,0.785,-,CALM,��
2018/06/18,07:30,0.856,1.214,0.840,1.530,1.063,0.467,0.819,0.783,�k��,1.2,��
2018/06/18,07:40,0.856,1.210,0.839,1.529,1.060,0.468,0.820,0.785,�k��,0.8,��
2018/06/18,07:50,0.854,1.214,0.839,1.530,1.063,0.468,0.819,0.784,-,CALM,��
2018/06/18,08:00,0.856,1.212,0.840,1.530,1.060,0.469,0.817,0.781,��쓌,1.7,��
2018/06/18,08:10,0.853,1.212,0.839,1.527,1.061,0.466,0.819,0.783,��쓌,1.2,��
2018/06/18,08:20,0.850,1.213,0.839,1.529,1.059,0.466,0.816,0.783,��,2.0,��
2018/06/18,08:30,0.853,1.213,0.840,1.530,1.059,0.468,0.819,0.781,���쓌,1.4,��
2018/06/18,08:40,0.856,1.212,0.840,1.528,1.060,0.466,0.818,0.783,�쓌,2.9,��
2018/06/18,08:50,0.853,1.214,0.837,1.530,1.058,0.467,0.819,0.782,��쓌,4.1,��
2018/06/18,09:00,0.852,1.212,0.837,1.529,1.059,0.468,0.820,0.783,��쓌,5.7,��
2018/06/18,09:10,0.853,1.214,0.836,1.531,1.061,0.469,0.820,0.781,��,5.0,��
2018/06/18,09:20,0.851,1.211,0.838,1.530,1.059,0.468,0.819,0.781,��,6.6,��
2018/06/18,09:30,0.855,1.213,0.838,1.528,1.059,0.468,0.820,0.782,��쓌,8.1,��
2018/06/18,09:40,0.853,1.213,0.838,1.529,1.061,0.468,0.822,0.783,��,9.9,��
2018/06/18,09:50,0.853,1.217,0.838,1.530,1.060,0.470,0.820,0.781,��쓌,8.4,��
2018/06/18,10:00,0.850,1.212,0.838,1.529,1.058,0.468,0.821,0.783,��,8.8,��
2018/06/18,10:10,0.855,1.216,0.840,1.530,1.059,0.470,0.821,0.784,��,7.7,��
2018/06/18,10:20,0.854,1.218,0.839,1.526,1.061,0.469,0.821,0.783,��,6.8,��
2018/06/18,10:30,0.854,1.216,0.839,1.530,1.061,0.468,0.822,0.781,��,8.0,��
2018/06/18,10:40,0.855,1.214,0.839,1.531,1.062,0.471,0.820,0.782,��,10.5,��
2018/06/18,10:50,0.853,1.217,0.840,1.529,1.063,0.470,0.822,0.783,��,9.6,��
2018/06/18,11:00,0.858,1.218,0.841,1.528,1.064,0.470,0.821,0.782,��,10.2,��
2018/06/18,11:10,0.857,1.218,0.840,1.529,1.063,0.472,0.820,0.783,��,10.7,��
2018/06/18,11:20,0.855,1.218,0.839,1.529,1.062,0.471,0.821,0.781,��,10.8,��
2018/06/18,11:30,0.855,1.219,0.842,1.530,1.065,0.471,0.821,0.782,��,10.8,��
2018/06/18,11:40,0.855,1.221,0.842,1.529,1.065,0.472,0.822,0.783,��,10.2,��
2018/06/18,11:50,0.855,1.221,0.842,1.528,1.063,0.472,0.822,0.783,��,9.2,��
2018/06/18,12:00,0.856,1.220,0.841,1.529,1.065,0.471,0.823,0.783,��쓌,8.6,��
2018/06/18,12:10,0.857,1.222,0.844,1.528,1.067,0.472,0.823,0.782,��쓌,10.2,��
2018/06/18,12:20,0.856,1.222,0.841,1.528,1.067,0.473,0.822,0.784,��쓌,11.6,��
2018/06/18,12:30,0.855,1.221,0.843,1.529,1.066,0.471,0.824,0.783,��,10.5,��
2018/06/18,12:40,0.856,1.222,0.843,1.531,1.066,0.472,0.823,0.783,��,9.8,��
2018/06/18,12:50,0.858,1.222,0.844,1.530,1.067,0.472,0.823,0.784,��,9.4,��
2018/06/18,13:00,0.860,1.225,0.842,1.533,1.066,0.473,0.823,0.784,��쓌,10.5,��
2018/06/18,13:10,0.857,1.223,0.841,1.531,1.066,0.473,0.821,0.784,��,10.3,��
2018/06/18,13:20,0.861,1.222,0.841,1.529,1.069,0.473,0.823,0.786,��,9.7,��
2018/06/18,13:30,0.859,1.223,0.842,1.532,1.068,0.468,0.821,0.783,��,7.8,��
2018/06/18,13:40,0.860,1.222,0.844,1.531,1.068,0.471,0.823,0.784,��쓌,9.2,��
2018/06/18,13:50,0.861,1.223,0.842,1.532,1.069,0.471,0.823,0.783,��,10.2,��
2018/06/18,14:00,0.861,1.224,0.843,1.531,1.068,0.470,0.821,0.784,��,9.7,��
2018/06/18,14:10,0.861,1.226,0.843,1.530,1.068,0.473,0.823,0.785,��,7.5,��
2018/06/18,14:20,0.862,1.225,0.844,1.531,1.067,0.472,0.823,0.784,��쓌,9.9,��
2018/06/18,14:30,0.862,1.226,0.843,1.532,1.070,0.474,0.823,0.783,��,9.0,��
2018/06/18,14:40,0.860,1.227,0.845,1.532,1.066,0.473,0.821,0.783,��,9.2,��
2018/06/18,14:50,0.862,1.223,0.844,1.531,1.070,0.473,0.823,0.785,��쓌,8.7,��
2018/06/18,15:00,0.860,1.227,0.846,1.532,1.070,0.473,0.821,0.783,��,8.7,��
2018/06/18,15:10,0.862,1.227,0.844,1.535,1.071,0.473,0.823,0.783,��,7.8,��
2018/06/18,15:20,0.862,1.225,0.844,1.536,1.068,0.474,0.822,0.784,��,9.5,��
2018/06/18,15:30,0.859,1.226,0.846,1.536,1.070,0.474,0.823,0.783,��,8.7,��
2018/06/18,15:40,0.860,1.225,0.843,1.533,1.070,0.475,0.823,0.783,��,9.0,��
2018/06/18,15:50,0.863,1.228,0.842,1.534,1.071,0.473,0.822,0.782,��,8.5,��
2018/06/18,16:00,0.861,1.226,0.844,1.536,1.069,0.473,0.823,0.783,��,7.1,��
2018/06/18,16:10,0.863,1.228,0.843,1.535,1.071,0.474,0.822,0.783,��,7.6,��
2018/06/18,16:20,0.862,1.226,0.844,1.534,1.069,0.474,0.823,0.784,��,7.4,��
2018/06/18,16:30,0.864,1.226,0.844,1.534,1.068,0.473,0.821,0.786,��,5.6,��
2018/06/18,16:40,0.861,1.228,0.843,1.536,1.071,0.473,0.824,0.785,��,7.2,��
2018/06/18,16:50,0.863,1.227,0.844,1.537,1.070,0.473,0.822,0.785,��,7.2,��
2018/06/18,17:00,0.862,1.228,0.845,1.540,1.072,0.473,0.823,0.784,��,6.5,��
2018/06/18,17:10,0.862,1.226,0.846,1.539,1.071,0.474,0.822,0.784,��,7.1,��
2018/06/18,17:20,0.862,1.229,0.845,1.537,1.071,0.473,0.823,0.786,��,7.4,��
2018/06/18,17:30,0.861,1.227,0.847,1.536,1.071,0.473,0.822,0.785,��,7.3,��
2018/06/18,17:40,0.863,1.228,0.845,1.537,1.072,0.474,0.822,0.784,��,7.5,��
2018/06/18,17:50,0.860,1.229,0.845,1.537,1.070,0.474,0.823,0.785,��,6.8,��
2018/06/18,18:00,0.861,1.229,0.846,1.538,1.068,0.473,0.823,0.785,��,7.6,��
2018/06/18,18:10,0.861,1.229,0.845,1.541,1.072,0.474,0.820,0.783,��,7.8,��
2018/06/18,18:20,0.863,1.230,0.846,1.539,1.069,0.473,0.821,0.786,��,7.0,��
2018/06/18,18:30,0.862,1.230,0.845,1.537,1.070,0.474,0.820,0.786,��,7.1,��
2018/06/18,18:40,0.860,1.229,0.845,1.537,1.073,0.474,0.822,0.786,��,6.3,��
2018/06/18,18:50,0.862,1.228,0.846,1.538,1.070,0.473,0.822,0.786,��,5.7,��
2018/06/18,19:00,0.860,1.227,0.845,1.538,1.073,0.475,0.822,0.785,��,5.3,��
2018/06/18,19:10,0.862,1.230,0.846,1.542,1.072,0.476,0.825,0.785,��,5.4,��
2018/06/18,19:20,0.860,1.231,0.849,1.538,1.072,0.475,0.822,0.789,��,4.5,��
2018/06/18,19:30,0.861,1.231,0.849,1.540,1.070,0.475,0.824,0.788,��,4.3,��
2018/06/18,19:40,0.863,1.230,0.849,1.539,1.071,0.475,0.822,0.787,��,4.4,��
2018/06/18,19:50,0.863,1.232,0.849,1.538,1.071,0.476,0.824,0.788,��,4.3,��
2018/06/18,20:00,0.864,1.229,0.849,1.538,1.072,0.475,0.822,0.787,��,4.5,��
2018/06/18,20:10,0.864,1.231,0.850,1.541,1.073,0.474,0.823,0.787,��쐼,4.4,��
2018/06/18,20:20,0.862,1.230,0.849,1.539,1.072,0.476,0.822,0.787,��쐼,4.8,��
2018/06/18,20:30,0.865,1.231,0.851,1.538,1.074,0.476,0.823,0.787,��쐼,5.1,��
2018/06/18,20:40,0.862,1.229,0.850,1.540,1.075,0.476,0.822,0.785,��쐼,5.1,��
2018/06/18,20:50,0.862,1.233,0.849,1.540,1.071,0.475,0.823,0.787,��쐼,4.9,��
2018/06/18,21:00,0.861,1.230,0.850,1.538,1.076,0.474,0.825,0.788,��,4.8,��
2018/06/18,21:10,0.861,1.234,0.848,1.541,1.074,0.475,0.824,0.787,��,5.0,��
2018/06/18,21:20,0.864,1.232,0.848,1.539,1.075,0.474,0.824,0.787,��,4.5,��
2018/06/18,21:30,0.864,1.232,0.849,1.541,1.075,0.473,0.824,0.787,��,4.7,��
2018/06/18,21:40,0.861,1.232,0.849,1.541,1.074,0.475,0.824,0.787,��,5.3,��
2018/06/18,21:50,0.863,1.231,0.848,1.540,1.073,0.473,0.825,0.786,��,4.3,��
2018/06/18,22:00,0.863,1.230,0.847,1.540,1.073,0.474,0.824,0.786,��,4.8,��
2018/06/18,22:10,0.864,1.231,0.849,1.539,1.073,0.474,0.823,0.786,��,3.7,��
2018/06/18,22:20,0.860,1.231,0.847,1.540,1.075,0.475,0.824,0.787,��,3.5,��
2018/06/18,22:30,0.863,1.231,0.847,1.539,1.073,0.475,0.823,0.787,��,2.6,��
2018/06/18,22:40,0.864,1.231,0.847,1.542,1.074,0.476,0.824,0.787,��,2.0,��
2018/06/18,22:50,0.864,1.231,0.847,1.540,1.076,0.476,0.824,0.786,��,1.9,��
2018/06/18,23:00,0.865,1.230,0.848,1.537,1.075,0.474,0.824,0.788,��,1.5,��
2018/06/18,23:10,0.864,1.230,0.849,1.539,1.075,0.474,0.825,0.788,��쓌,1.7,��
2018/06/18,23:20,0.863,1.232,0.848,1.539,1.073,0.475,0.824,0.786,��쓌,2.8,��
2018/06/18,23:30,0.864,1.230,0.848,1.539,1.073,0.477,0.824,0.787,��쓌,3.4,��
2018/06/18,23:40,0.863,1.229,0.848,1.539,1.073,0.474,0.825,0.786,��쓌,3.0,��
2018/06/18,23:50,0.862,1.230,0.848,1.541,1.073,0.474,0.824,0.787,��쓌,2.6,��
